TimeCST,TemperatureF,Dew PointF,Humidity,Sea Level PressureIn,VisibilityMPH,Wind Direction,Wind SpeedMPH,Gust SpeedMPH,PrecipitationIn,Events,Conditions,WindDirDegrees,DateUTC
4:15 AM,60.8,51.8,72,29.93,10.0,South,15.0,-,N/A,,Clear,180,2012-11-10 10:15:00
4:35 AM,60.8,51.8,72,29.94,10.0,South,17.3,-,N/A,,Clear,180,2012-11-10 10:35:00
4:55 AM,60.8,51.8,72,29.95,10.0,South,15.0,20.7,N/A,,Clear,190,2012-11-10 10:55:00
5:15 AM,60.8,51.8,72,29.95,10.0,South,16.1,21.9,N/A,,Clear,180,2012-11-10 11:15:00
5:35 AM,60.8,51.8,72,29.95,10.0,South,15.0,-,N/A,,Clear,180,2012-11-10 11:35:00
5:55 AM,60.8,51.8,72,29.95,10.0,South,15.0,20.7,N/A,,Clear,180,2012-11-10 11:55:00
6:35 AM,60.8,50.0,68,29.96,10.0,South,15.0,-,N/A,,Clear,190,2012-11-10 12:35:00
6:55 AM,60.8,50.0,68,29.96,10.0,South,15.0,20.7,N/A,,Clear,190,2012-11-10 12:55:00
7:15 AM,60.8,50.0,68,29.96,10.0,South,15.0,21.9,N/A,,Clear,180,2012-11-10 13:15:00
7:35 AM,60.8,51.8,72,29.97,10.0,South,16.1,20.7,N/A,,Clear,190,2012-11-10 13:35:00
7:55 AM,60.8,51.8,72,29.98,10.0,South,15.0,-,N/A,,Clear,190,2012-11-10 13:55:00
8:15 AM,62.6,51.8,68,29.98,10.0,South,18.4,23.0,N/A,,Clear,190,2012-11-10 14:15:00
8:55 AM,64.4,51.8,64,29.98,10.0,South,19.6,26.5,N/A,,Clear,190,2012-11-10 14:55:00
9:15 AM,64.4,51.8,64,29.98,10.0,South,21.9,27.6,N/A,,Clear,190,2012-11-10 15:15:00
9:35 AM,66.2,51.8,60,29.97,10.0,South,25.3,29.9,N/A,,Clear,190,2012-11-10 15:35:00
9:55 AM,68.0,51.8,56,29.97,10.0,South,24.2,32.2,N/A,,Clear,190,2012-11-10 15:55:00
10:15 AM,68.0,51.8,56,29.96,10.0,South,25.3,31.1,N/A,,Clear,190,2012-11-10 16:15:00
10:35 AM,69.8,51.8,53,29.96,10.0,South,23.0,34.5,N/A,,Clear,190,2012-11-10 16:35:00
10:55 AM,68.0,51.8,56,29.96,10.0,South,17.3,26.5,N/A,,Clear,180,2012-11-10 16:55:00
11:15 AM,68.0,51.8,56,29.95,10.0,South,19.6,25.3,N/A,,Clear,190,2012-11-10 17:15:00
11:35 AM,68.0,51.8,56,29.94,10.0,South,16.1,24.2,N/A,,Clear,190,2012-11-10 17:35:00
11:55 AM,68.0,51.8,56,29.93,10.0,South,19.6,24.2,N/A,,Clear,190,2012-11-10 17:55:00
12:15 PM,69.8,51.8,53,29.92,10.0,South,20.7,26.5,N/A,,Clear,190,2012-11-10 18:15:00
12:35 PM,69.8,51.8,53,29.91,10.0,South,15.0,24.2,N/A,,Clear,180,2012-11-10 18:35:00
12:55 PM,71.6,50.0,46,29.89,10.0,South,24.2,29.9,N/A,,Clear,190,2012-11-10 18:55:00
1:15 PM,71.6,50.0,46,29.88,10.0,South,23.0,32.2,N/A,,Clear,190,2012-11-10 19:15:00
1:35 PM,73.4,48.2,41,29.88,10.0,South,26.5,34.5,N/A,,Clear,190,2012-11-10 19:35:00
1:55 PM,73.4,50.0,44,29.87,10.0,South,19.6,28.8,N/A,,Clear,180,2012-11-10 19:55:00
2:15 PM,73.4,51.8,47,29.86,10.0,South,15.0,23.0,N/A,,Clear,180,2012-11-10 20:15:00
2:35 PM,73.4,51.8,47,29.86,10.0,SSE,15.0,24.2,N/A,,Clear,160,2012-11-10 20:35:00
2:55 PM,71.6,51.8,50,29.86,10.0,South,11.5,21.9,N/A,,Clear,170,2012-11-10 20:55:00
3:15 PM,71.6,50.0,46,29.86,10.0,South,15.0,24.2,N/A,,Clear,170,2012-11-10 21:15:00
3:35 PM,71.6,48.2,43,29.84,10.0,SSE,17.3,26.5,N/A,,Clear,160,2012-11-10 21:35:00
3:55 PM,71.6,50.0,46,29.84,10.0,SSE,18.4,23.0,N/A,,Clear,160,2012-11-10 21:55:00
4:15 PM,71.6,46.4,41,29.83,10.0,SSE,19.6,28.8,N/A,,Clear,160,2012-11-10 22:15:00
4:55 PM,68.0,48.2,49,29.85,10.0,South,15.0,-,N/A,,Clear,170,2012-11-10 22:55:00
5:15 PM,68.0,48.2,49,29.85,10.0,SSE,15.0,23.0,N/A,,Clear,160,2012-11-10 23:15:00
5:35 PM,66.2,48.2,52,29.86,10.0,SSE,11.5,-,N/A,,Clear,150,2012-11-10 23:35:00
5:55 PM,66.2,50.0,56,29.86,10.0,SSE,15.0,21.9,N/A,,Clear,150,2012-11-10 23:55:00
6:15 PM,64.4,50.0,59,29.87,10.0,SSE,16.1,23.0,N/A,,Clear,160,2012-11-11 00:15:00
6:35 PM,64.4,51.8,64,29.88,10.0,SSE,15.0,21.9,N/A,,Clear,160,2012-11-11 00:35:00
6:55 PM,64.4,51.8,64,29.88,10.0,SSE,15.0,-,N/A,,Clear,160,2012-11-11 00:55:00
7:15 PM,64.4,51.8,64,29.87,10.0,SSE,18.4,25.3,N/A,,Clear,150,2012-11-11 01:15:00
7:35 PM,64.4,51.8,64,29.87,10.0,SSE,18.4,24.2,N/A,,Clear,160,2012-11-11 01:35:00
7:55 PM,64.4,53.6,68,29.86,10.0,SSE,16.1,24.2,N/A,,Clear,150,2012-11-11 01:55:00
8:15 PM,64.4,53.6,68,29.87,10.0,SSE,18.4,24.2,N/A,,Clear,160,2012-11-11 02:15:00
8:35 PM,62.6,53.6,72,29.86,10.0,SSE,16.1,21.9,N/A,,Clear,160,2012-11-11 02:35:00
8:55 PM,62.6,53.6,72,29.84,10.0,SSE,17.3,21.9,N/A,,Clear,160,2012-11-11 02:55:00
9:15 PM,64.4,53.6,68,29.84,10.0,SSE,18.4,24.2,N/A,,Clear,160,2012-11-11 03:15:00
9:35 PM,64.4,53.6,68,29.83,10.0,SSE,21.9,29.9,N/A,,Clear,150,2012-11-11 03:35:00
9:55 PM,64.4,53.6,68,29.82,10.0,SSE,19.6,28.8,N/A,,Clear,160,2012-11-11 03:55:00
10:15 PM,64.4,53.6,68,29.83,10.0,South,21.9,27.6,N/A,,Clear,170,2012-11-11 04:15:00
10:35 PM,64.4,53.6,68,29.82,10.0,South,18.4,28.8,N/A,,Clear,170,2012-11-11 04:35:00
10:55 PM,64.4,53.6,68,29.82,10.0,South,19.6,25.3,N/A,,Clear,170,2012-11-11 04:55:00
11:15 PM,64.4,53.6,68,29.82,10.0,South,16.1,25.3,N/A,,Clear,170,2012-11-11 05:15:00
11:35 PM,64.4,53.6,68,29.83,10.0,SSE,13.8,23.0,N/A,,Clear,160,2012-11-11 05:35:00
11:55 PM,64.4,53.6,68,29.84,10.0,South,15.0,23.0,N/A,,Clear,170,2012-11-11 05:55:00